| time (UTC) | temp F | wind direction | speed MPH | gust MPH | rain 1hr in | rain 24hr in | rain mn in | humidity % | barometer mb |
| 20260504222143 | 73 | 232 | 4.0 | 9.0 | 0.00 | 0.00 | 0.00 | 24 | 1006.1 |
| 20260504221122 | 73 | 218 | 4.0 | 14.0 | 0.00 | 0.00 | 0.00 | 28 | 1006.1 |
| 20260504220122 | 73 | 241 | 4.0 | 9.0 | 0.00 | 0.00 | 0.00 | 26 | 1006.3 |
| 20260504215122 | 73 | 241 | 3.0 | 7.0 | 0.00 | 0.00 | 0.00 | 23 | 1006.3 |
| 20260504214122 | 74 | 228 | 3.0 | 7.0 | 0.00 | 0.00 | 0.00 | 27 | 1006.5 |
| 20260504213122 | 74 | 223 | 4.0 | 7.0 | 0.00 | 0.00 | 0.00 | 24 | 1006.7 |
| 20260504212122 | 73 | 251 | 4.0 | 8.0 | 0.00 | 0.00 | 0.00 | 22 | 1006.8 |
| 20260504211122 | 73 | 246 | 4.0 | 11.0 | 0.00 | 0.00 | 0.00 | 25 | 1006.9 |
| 20260504210143 | 73 | 222 | 4.0 | 7.0 | 0.00 | 0.00 | 0.00 | 30 | 1007.0 |
| 20260504205122 | 73 | 252 | 6.0 | 11.0 | 0.00 | 0.00 | 0.00 | 24 | 1007.1 |
| 20260504204122 | 73 | 236 | 4.0 | 7.0 | 0.00 | 0.00 | 0.00 | 25 | 1007.1 |
| 20260504203122 | 73 | 237 | 4.0 | 8.0 | 0.00 | 0.00 | 0.00 | 25 | 1007.1 |
| 20260504202122 | 73 | 237 | 3.0 | 8.0 | 0.00 | 0.00 | 0.00 | 27 | 1007.2 |
| 20260504201122 | 72 | 229 | 5.0 | 10.0 | 0.00 | 0.00 | 0.00 | 27 | 1007.3 |
| 20260504200122 | 72 | 219 | 5.0 | 12.0 | 0.00 | 0.00 | 0.00 | 32 | 1007.5 |
| 20260504195122 | 71 | 223 | 6.0 | 13.0 | 0.00 | 0.00 | 0.00 | 28 | 1007.6 |
| 20260504194122 | 72 | 235 | 5.0 | 11.0 | 0.00 | 0.00 | 0.00 | 27 | 1007.7 |
| 20260504193122 | 71 | 226 | 5.0 | 11.0 | 0.00 | 0.00 | 0.00 | 27 | 1007.7 |
| 20260504192122 | 71 | 239 | 5.0 | 13.0 | 0.00 | 0.00 | 0.00 | 31 | 1007.7 |
| 20260504191122 | 71 | 248 | 4.0 | 8.0 | 0.00 | 0.00 | 0.00 | 29 | 1007.9 |
| 20260504190143 | 71 | 238 | 4.0 | 9.0 | 0.00 | 0.00 | 0.00 | 28 | 1008.0 |
| 20260504185122 | 71 | 234 | 5.0 | 10.0 | 0.00 | 0.00 | 0.00 | 31 | 1008.0 |
| 20260504184122 | 70 | 251 | 4.0 | 8.0 | 0.00 | 0.00 | 0.00 | 29 | 1008.2 |
| 20260504183122 | 70 | 250 | 4.0 | 8.0 | 0.00 | 0.00 | 0.00 | 30 | 1008.3 |
| 20260504182122 | 70 | 243 | 4.0 | 7.0 | 0.00 | 0.00 | 0.00 | 30 | 1008.5 |
| 20260504181122 | 70 | 237 | 4.0 | 11.0 | 0.00 | 0.00 | 0.00 | 32 | 1008.6 |
| 20260504180143 | 69 | 268 | 3.0 | 10.0 | 0.00 | 0.00 | 0.00 | 31 | 1008.7 |
| 20260504175122 | 69 | 266 | 2.0 | 8.0 | 0.00 | 0.00 | 0.00 | 33 | 1008.9 |
| 20260504174122 | 69 | 274 | 3.0 | 8.0 | 0.00 | 0.00 | 0.00 | 31 | 1009.0 |
| 20260504173122 | 69 | 330 | 1.0 | 4.0 | 0.00 | 0.00 | 0.00 | 32 | 1009.0 |
| 20260504172122 | 68 | 168 | 2.0 | 5.0 | 0.00 | 0.00 | 0.00 | 32 | 1009.2 |
| 20260504171122 | 67 | 163 | 2.0 | 4.0 | 0.00 | 0.00 | 0.00 | 34 | 1009.2 |
| 20260504170122 | 66 | 145 | 1.0 | 4.0 | 0.00 | 0.00 | 0.00 | 33 | 1009.4 |
| 20260504160122 | 59 | 163 | 1.0 | 4.0 | 0.00 | 0.00 | 0.00 | 34 | 1009.9 |
| 20260504151144 | 50 | 252 | 0.0 | 1.0 | 0.00 | 0.00 | 0.00 | 49 | 1010.5 |
| 20260504150123 | 48 | 254 | 0.0 | 2.0 | 0.00 | 0.00 | 0.00 | 52 | 1010.6 |
| 20260504141143 | 43 | 0 | 0.0 | 0.0 | 0.00 | 0.00 | 0.00 | 66 | 1010.9 |
| 20260504140122 | 43 | 0 | 0.0 | 0.0 | 0.00 | 0.00 | 0.00 | 66 | 1011.1 |
| 20260504130122 | 40 | 0 | 0.0 | 0.0 | 0.00 | 0.00 | 0.00 | 66 | 1010.7 |
| 20260504120122 | 42 | 93 | 1.0 | 2.0 | 0.00 | 0.00 | 0.00 | 62 | 1010.4 |
| 20260504110122 | 43 | 19 | 2.0 | 6.0 | 0.00 | 0.00 | 0.00 | 58 | 1010.3 |
| 20260504100122 | 42 | 4 | 2.0 | 5.0 | 0.00 | 0.00 | 0.00 | 58 | 1010.2 |
| 20260504081122 | 44 | 297 | 1.0 | 3.0 | 0.00 | 0.00 | 0.00 | 52 | 1010.2 |
| 20260504080122 | 45 | 0 | 0.0 | 1.0 | 0.00 | 0.00 | 0.00 | 51 | 1010.3 |
| 20260504070122 | 49 | 0 | 0.0 | 0.0 | 0.00 | 0.00 | 0.00 | 45 | 1010.4 |
| 20260504060143 | 50 | 319 | 1.0 | 4.0 | 0.00 | 0.00 | 0.00 | 39 | 1010.3 |
| 20260504050122 | 54 | 336 | 1.0 | 3.0 | 0.00 | 0.00 | 0.00 | 32 | 1010.3 |
| 20260504045122 | 55 | 336 | 2.0 | 4.0 | 0.00 | 0.00 | 0.00 | 31 | 1010.4 |
| 20260504044143 | 56 | 330 | 1.0 | 3.0 | 0.00 | 0.00 | 0.00 | 31 | 1010.4 |
| 20260504043143 | 56 | 0 | 0.0 | 1.0 | 0.00 | 0.00 | 0.00 | 33 | 1010.4 |
| 20260504042122 | 57 | 0 | 0.0 | 1.0 | 0.00 | 0.00 | 0.00 | 31 | 1010.5 |
| 20260504041143 | 57 | 328 | 0.0 | 2.0 | 0.00 | 0.00 | 0.00 | 29 | 1010.4 |
| 20260504040122 | 58 | 0 | 0.0 | 0.0 | 0.00 | 0.00 | 0.00 | 28 | 1010.3 |
| 20260504035122 | 58 | 329 | 1.0 | 3.0 | 0.00 | 0.00 | 0.00 | 27 | 1010.2 |
| 20260504034122 | 58 | 325 | 0.0 | 3.0 | 0.00 | 0.00 | 0.00 | 28 | 1010.2 |
| 20260504033122 | 59 | 330 | 2.0 | 4.0 | 0.00 | 0.00 | 0.00 | 28 | 1010.2 |
| 20260504032143 | 60 | 275 | 2.0 | 7.0 | 0.00 | 0.00 | 0.00 | 27 | 1010.1 |
| 20260504031122 | 61 | 279 | 2.0 | 6.0 | 0.00 | 0.00 | 0.00 | 26 | 1010.1 |
| 20260504030122 | 61 | 278 | 1.0 | 4.0 | 0.00 | 0.00 | 0.00 | 26 | 1010.0 |
| 20260504025122 | 62 | 331 | 3.0 | 6.0 | 0.00 | 0.00 | 0.00 | 23 | 1010.0 |
| 20260504024122 | 63 | 321 | 2.0 | 4.0 | 0.00 | 0.00 | 0.00 | 25 | 1010.0 |
| 20260504023122 | 64 | 277 | 0.0 | 2.0 | 0.00 | 0.00 | 0.00 | 25 | 1010.0 |
| 20260504022122 | 64 | 336 | 3.0 | 8.0 | 0.00 | 0.00 | 0.00 | 23 | 1009.9 |
| 20260504021143 | 65 | 294 | 1.0 | 5.0 | 0.00 | 0.00 | 0.00 | 24 | 1010.0 |
| 20260504020122 | 65 | 276 | 1.0 | 3.0 | 0.00 | 0.00 | 0.00 | 23 | 1010.0 |
| 20260504015122 | 66 | 275 | 2.0 | 3.0 | 0.00 | 0.00 | 0.00 | 24 | 1010.0 |
| 20260504014143 | 67 | 274 | 3.0 | 4.0 | 0.00 | 0.00 | 0.00 | 23 | 1010.1 |
| 20260504013122 | 68 | 273 | 2.0 | 3.0 | 0.00 | 0.00 | 0.00 | 23 | 1010.2 |
| 20260504012122 | 69 | 274 | 3.0 | 7.0 | 0.00 | 0.00 | 0.00 | 22 | 1010.3 |
| 20260504011122 | 69 | 279 | 2.0 | 4.0 | 0.00 | 0.00 | 0.00 | 20 | 1010.3 |
| 20260504010122 | 69 | 276 | 1.0 | 4.0 | 0.00 | 0.00 | 0.00 | 17 | 1010.5 |
| 20260504005122 | 70 | 228 | 2.0 | 6.0 | 0.00 | 0.00 | 0.00 | 20 | 1010.6 |
| 20260504004122 | 70 | 215 | 0.0 | 2.0 | 0.00 | 0.00 | 0.00 | 21 | 1010.7 |
| 20260504003122 | 70 | 215 | 1.0 | 2.0 | 0.00 | 0.00 | 0.00 | 14 | 1010.8 |
| 20260504002122 | 70 | 206 | 1.0 | 4.0 | 0.00 | 0.00 | 0.00 | 18 | 1010.8 |
| 20260504001122 | 71 | 261 | 2.0 | 4.0 | 0.00 | 0.00 | 0.00 | 20 | 1010.8 |
| 20260504000122 | 71 | 257 | 1.0 | 3.0 | 0.00 | 0.00 | 0.00 | 19 | 1010.9 |
| 20260503235143 | 70 | 274 | 1.0 | 3.0 | 0.00 | 0.00 | 0.00 | 16 | 1010.9 |
| 20260503234122 | 70 | 272 | 2.0 | 4.0 | 0.00 | 0.00 | 0.00 | 16 | 1011.0 |
| 20260503233122 | 70 | 269 | 1.0 | 2.0 | 0.00 | 0.00 | 0.00 | 20 | 1011.1 |
| 20260503232122 | 70 | 268 | 4.0 | 8.0 | 0.00 | 0.00 | 0.00 | 15 | 1011.2 |
| 20260503231122 | 71 | 262 | 2.0 | 6.0 | 0.00 | 0.00 | 0.00 | 20 | 1011.3 |
| 20260503230122 | 71 | 212 | 1.0 | 4.0 | 0.00 | 0.00 | 0.00 | 16 | 1011.3 |
| 20260503225122 | 70 | 273 | 3.0 | 8.0 | 0.00 | 0.00 | 0.00 | 20 | 1011.5 |
| 20260503224122 | 71 | 271 | 4.0 | 8.0 | 0.00 | 0.00 | 0.00 | 13 | 1011.6 |
| 20260503223143 | 71 | 245 | 3.0 | 7.0 | 0.00 | 0.00 | 0.00 | 15 | 1011.8 |